Time,TemperatureF,DewpointF,PressureIn,WindDirection,WindDirectionDegrees,WindSpeedMPH,WindSpeedGustMPH,Humidity,HourlyPrecipIn,Conditions,Clouds,dailyrainin,SoftwareType,DateUTC
2013-11-25 00:00:00,18.7,-0.1,30.41,SSW,208,6.7,7.4,43,0.00,,---,0.00,VWS V13.01,2013-11-25 05:00:00,
2013-11-25 00:01:00,18.7,-0.1,30.41,South,189,6.7,8.3,43,0.00,,---,0.00,VWS V13.01,2013-11-25 05:01:00,
2013-11-25 00:03:00,18.7,-0.1,30.41,SSW,200,4.9,6.9,43,0.00,,---,0.00,VWS V13.01,2013-11-25 05:03:00,
2013-11-25 00:04:00,18.7,-0.1,30.41,South,171,7.4,8.3,43,0.00,,---,0.00,VWS V13.01,2013-11-25 05:04:00,
2013-11-25 00:05:00,18.7,-0.1,30.41,South,184,8.3,8.7,43,0.00,,---,0.00,VWS V13.01,2013-11-25 05:05:00,
2013-11-25 00:08:00,18.7,-0.1,30.41,SSW,204,4.5,7.4,43,0.00,,---,0.00,VWS V13.01,2013-11-25 05:08:00,
2013-11-25 00:13:00,18.5,0.2,30.41,South,188,7.8,8.3,44,0.00,,---,0.00,VWS V13.01,2013-11-25 05:13:00,
2013-11-25 00:19:00,18.5,0.2,30.38,South,178,7.4,7.8,44,0.00,,---,0.00,VWS V13.01,2013-11-25 05:19:00,
2013-11-25 00:24:00,18.5,0.2,30.38,SSW,203,8.7,12.1,44,0.00,,---,0.00,VWS V13.01,2013-11-25 05:24:00,
2013-11-25 00:29:00,18.7,0.4,30.38,South,181,6.7,10.5,44,0.00,,---,0.00,VWS V13.01,2013-11-25 05:29:00,
2013-11-25 00:34:00,18.9,0.6,30.38,South,178,8.3,9.2,44,0.00,,---,0.00,VWS V13.01,2013-11-25 05:34:00,
2013-11-25 00:39:00,18.7,0.4,30.38,SSE,161,4.5,8.7,44,0.00,,---,0.00,VWS V13.01,2013-11-25 05:39:00,
2013-11-25 00:44:00,18.7,0.4,30.38,South,179,7.8,10.5,44,0.00,,---,0.00,VWS V13.01,2013-11-25 05:44:00,
2013-11-25 00:49:00,18.7,0.4,30.38,SSE,164,5.8,10.1,44,0.00,,---,0.00,VWS V13.01,2013-11-25 05:49:00,
2013-11-25 00:54:00,18.9,0.6,30.38,SSE,164,4.0,8.7,44,0.00,,---,0.00,VWS V13.01,2013-11-25 05:54:00,
2013-11-25 00:59:00,18.9,0.6,30.38,SSW,195,6.7,10.1,44,0.00,,---,0.00,VWS V13.01,2013-11-25 05:59:00,
2013-11-25 01:04:00,18.9,0.6,30.38,SSW,196,7.4,10.1,44,0.00,,---,0.00,VWS V13.01,2013-11-25 06:04:00,
2013-11-25 01:09:00,18.9,0.6,30.38,SSW,209,11.2,11.6,44,0.00,,---,0.00,VWS V13.01,2013-11-25 06:09:00,
2013-11-25 01:14:00,18.9,0.6,30.38,South,178,3.6,9.6,44,0.00,,---,0.00,VWS V13.01,2013-11-25 06:14:00,
2013-11-25 01:19:00,18.7,0.4,30.38,SW,222,6.7,8.7,44,0.00,,---,0.00,VWS V13.01,2013-11-25 06:19:00,
2013-11-25 01:24:00,18.5,0.2,30.38,SSW,203,7.4,8.3,44,0.00,,---,0.00,VWS V13.01,2013-11-25 06:24:00,
2013-11-25 01:29:00,18.7,0.4,30.38,South,176,5.8,7.4,44,0.00,,---,0.00,VWS V13.01,2013-11-25 06:29:00,
2013-11-25 01:34:00,18.7,0.4,30.38,South,183,8.7,8.7,44,0.00,,---,0.00,VWS V13.01,2013-11-25 06:34:00,
2013-11-25 01:39:00,18.7,0.4,30.38,South,180,7.4,7.8,44,0.00,,---,0.00,VWS V13.01,2013-11-25 06:39:00,
2013-11-25 01:45:00,18.9,0.6,30.38,SSW,209,5.8,5.8,44,0.00,,---,0.00,VWS V13.01,2013-11-25 06:45:00,
2013-11-25 01:50:00,18.9,0.6,30.35,SSW,198,4.0,6.3,44,0.00,,---,0.00,VWS V13.01,2013-11-25 06:50:00,
2013-11-25 01:55:00,18.9,0.6,30.35,South,182,6.9,6.9,44,0.00,,---,0.00,VWS V13.01,2013-11-25 06:55:00,
2013-11-25 02:00:00,18.9,0.6,30.35,South,181,6.9,6.9,44,0.00,,---,0.00,VWS V13.01,2013-11-25 07:00:00,
2013-11-25 02:05:00,19.0,0.7,30.38,SSW,201,6.3,6.9,44,0.00,,---,0.00,VWS V13.01,2013-11-25 07:05:00,
2013-11-25 02:10:00,19.0,0.7,30.38,South,189,5.8,5.8,44,0.00,,---,0.00,VWS V13.01,2013-11-25 07:10:00,
2013-11-25 02:15:00,19.2,0.9,30.38,SSW,201,2.7,4.5,44,0.00,,---,0.00,VWS V13.01,2013-11-25 07:15:00,
2013-11-25 02:20:00,19.2,0.9,30.38,SSW,201,0.0,3.1,44,0.00,,---,0.00,VWS V13.01,2013-11-25 07:20:00,
2013-11-25 02:25:00,19.6,1.2,30.38,SSW,201,4.0,4.0,44,0.00,,---,0.00,VWS V13.01,2013-11-25 07:25:00,
2013-11-25 02:30:00,19.6,1.2,30.38,SSW,201,3.6,3.6,44,0.00,,---,0.00,VWS V13.01,2013-11-25 07:30:00,
2013-11-25 02:35:00,19.6,1.2,30.38,SSW,201,3.1,3.6,44,0.00,,---,0.00,VWS V13.01,2013-11-25 07:35:00,
2013-11-25 02:40:00,19.8,1.4,30.38,SSW,201,4.9,4.9,44,0.00,,---,0.00,VWS V13.01,2013-11-25 07:40:00,
2013-11-25 02:45:00,19.6,1.2,30.38,SSW,201,4.5,4.5,44,0.00,,---,0.00,VWS V13.01,2013-11-25 07:45:00,
2013-11-25 02:50:00,19.8,1.4,30.35,SSW,201,2.7,3.1,44,0.00,,---,0.00,VWS V13.01,2013-11-25 07:50:00,
2013-11-25 02:56:00,19.8,1.4,30.35,SSW,201,2.7,3.6,44,0.00,,---,0.00,VWS V13.01,2013-11-25 07:56:00,
2013-11-25 03:01:00,19.6,1.2,30.35,SSW,202,4.5,4.5,44,0.00,,---,0.00,VWS V13.01,2013-11-25 08:01:00,
2013-11-25 03:06:00,19.6,1.2,30.35,SSW,202,4.5,4.9,44,0.00,,---,0.00,VWS V13.01,2013-11-25 08:06:00,
2013-11-25 03:11:00,19.6,1.2,30.35,SSW,202,0.0,0.0,44,0.00,,---,0.00,VWS V13.01,2013-11-25 08:11:00,
2013-11-25 03:16:00,19.6,1.2,30.35,SSW,202,2.7,3.6,44,0.00,,---,0.00,VWS V13.01,2013-11-25 08:16:00,
2013-11-25 03:21:00,19.8,1.4,30.35,SSW,202,3.6,3.6,44,0.00,,---,0.00,VWS V13.01,2013-11-25 08:21:00,
2013-11-25 03:26:00,19.8,1.4,30.35,SSW,202,4.5,4.5,44,0.00,,---,0.00,VWS V13.01,2013-11-25 08:26:00,
2013-11-25 03:31:00,19.8,1.4,30.35,SSW,202,4.5,4.5,44,0.00,,---,0.00,VWS V13.01,2013-11-25 08:31:00,
2013-11-25 03:36:00,19.6,1.7,30.35,SSW,202,3.1,4.0,45,0.00,,---,0.00,VWS V13.01,2013-11-25 08:36:00,
2013-11-25 03:41:00,19.4,1.5,30.35,SSW,202,3.1,3.6,45,0.00,,---,0.00,VWS V13.01,2013-11-25 08:41:00,
2013-11-25 03:47:00,19.4,1.5,30.35,SSW,202,3.6,4.5,45,0.00,,---,0.00,VWS V13.01,2013-11-25 08:47:00,
2013-11-25 03:52:00,19.6,1.7,30.35,SSW,202,3.1,3.6,45,0.00,,---,0.00,VWS V13.01,2013-11-25 08:52:00,
2013-11-25 03:57:00,19.6,1.7,30.35,SSW,202,3.6,3.6,45,0.00,,---,0.00,VWS V13.01,2013-11-25 08:57:00,
2013-11-25 04:02:00,19.4,1.5,30.35,SSW,202,3.6,4.5,45,0.00,,---,0.00,VWS V13.01,2013-11-25 09:02:00,
2013-11-25 04:07:00,19.4,1.5,30.35,SSW,202,3.6,4.0,45,0.00,,---,0.00,VWS V13.01,2013-11-25 09:07:00,
2013-11-25 04:12:00,19.6,1.7,30.35,SSW,202,3.1,4.5,45,0.00,,---,0.00,VWS V13.01,2013-11-25 09:12:00,
2013-11-25 04:17:00,19.6,1.7,30.35,SSW,202,4.0,4.9,45,0.00,,---,0.00,VWS V13.01,2013-11-25 09:17:00,
2013-11-25 04:22:00,19.6,1.7,30.32,SSW,202,2.7,4.9,45,0.00,,---,0.00,VWS V13.01,2013-11-25 09:22:00,
2013-11-25 04:27:00,19.6,2.2,30.32,SSW,202,2.7,4.0,46,0.00,,---,0.00,VWS V13.01,2013-11-25 09:27:00,
2013-11-25 04:32:00,19.8,2.3,30.32,SSW,202,2.7,5.4,46,0.00,,---,0.00,VWS V13.01,2013-11-25 09:32:00,
2013-11-25 04:37:00,19.9,2.5,30.32,SSW,202,5.4,5.4,46,0.00,,---,0.00,VWS V13.01,2013-11-25 09:37:00,
2013-11-25 04:42:00,20.1,2.7,30.32,SSW,202,4.5,4.5,46,0.00,,---,0.00,VWS V13.01,2013-11-25 09:42:00,
2013-11-25 04:47:00,20.5,2.5,30.32,SE,134,5.4,5.8,45,0.00,,---,0.00,VWS V13.01,2013-11-25 09:47:00,
2013-11-25 04:52:00,20.7,2.7,30.32,South,170,3.6,5.4,45,0.00,,---,0.00,VWS V13.01,2013-11-25 09:52:00,
2013-11-25 04:57:00,21.0,3.0,30.32,SSE,155,4.5,5.4,45,0.00,,---,0.00,VWS V13.01,2013-11-25 09:57:00,
2013-11-25 05:02:00,21.2,3.2,30.32,SE,146,4.5,5.8,45,0.00,,---,0.00,VWS V13.01,2013-11-25 10:02:00,
2013-11-25 05:07:00,21.2,3.2,30.29,South,170,4.0,5.8,45,0.00,,---,0.00,VWS V13.01,2013-11-25 10:07:00,
2013-11-25 05:12:00,21.2,3.2,30.29,SSW,194,4.5,4.9,45,0.00,,---,0.00,VWS V13.01,2013-11-25 10:12:00,
2013-11-25 05:17:00,21.0,3.0,30.29,SSE,164,6.9,6.9,45,0.00,,---,0.00,VWS V13.01,2013-11-25 10:17:00,
2013-11-25 05:22:00,21.0,3.5,30.29,East,88,6.3,6.7,46,0.00,,---,0.00,VWS V13.01,2013-11-25 10:22:00,
2013-11-25 05:27:00,21.0,3.5,30.29,SSW,194,3.6,7.4,46,0.00,,---,0.00,VWS V13.01,2013-11-25 10:27:00,
2013-11-25 05:32:00,21.2,3.7,30.29,SSE,167,6.3,6.3,46,0.00,,---,0.00,VWS V13.01,2013-11-25 10:32:00,
2013-11-25 05:37:00,21.2,3.7,30.29,South,190,4.5,7.8,46,0.00,,---,0.00,VWS V13.01,2013-11-25 10:37:00,
2013-11-25 05:42:00,21.4,3.8,30.29,South,190,8.3,9.6,46,0.00,,---,0.00,VWS V13.01,2013-11-25 10:42:00,
2013-11-25 05:47:00,21.4,3.8,30.29,South,177,5.4,11.2,46,0.00,,---,0.00,VWS V13.01,2013-11-25 10:47:00,
2013-11-25 05:52:00,21.4,3.8,30.26,SE,128,6.3,8.3,46,0.00,,---,0.00,VWS V13.01,2013-11-25 10:52:00,
2013-11-25 05:57:00,21.6,3.5,30.26,South,180,5.8,9.2,45,0.00,,---,0.00,VWS V13.01,2013-11-25 10:57:00,
2013-11-25 06:02:00,21.6,4.0,30.26,SSE,156,4.0,9.6,46,0.00,,---,0.00,VWS V13.01,2013-11-25 11:02:00,
2013-11-25 06:07:00,21.6,4.0,30.26,SW,218,7.8,7.8,46,0.00,,---,0.00,VWS V13.01,2013-11-25 11:07:00,
2013-11-25 06:12:00,21.6,3.5,30.26,SSW,205,6.3,11.0,45,0.00,,---,0.00,VWS V13.01,2013-11-25 11:12:00,
2013-11-25 06:17:00,21.6,3.5,30.26,South,191,6.9,8.7,45,0.00,,---,0.00,VWS V13.01,2013-11-25 11:17:00,
2013-11-25 06:22:00,21.4,3.3,30.26,SSE,165,6.9,9.2,45,0.00,,---,0.00,VWS V13.01,2013-11-25 11:22:00,
2013-11-25 06:27:00,21.6,3.5,30.26,SSE,153,10.5,13.0,45,0.00,,---,0.00,VWS V13.01,2013-11-25 11:27:00,
2013-11-25 06:32:00,21.6,3.5,30.26,South,189,7.4,10.1,45,0.00,,---,0.00,VWS V13.01,2013-11-25 11:32:00,
2013-11-25 06:37:00,21.7,3.7,30.26,South,191,11.0,11.0,45,0.00,,---,0.00,VWS V13.01,2013-11-25 11:37:00,
2013-11-25 06:42:00,21.7,3.7,30.26,South,184,6.3,8.7,45,0.00,,---,0.00,VWS V13.01,2013-11-25 11:42:00,
2013-11-25 06:47:00,21.7,4.2,30.26,SSW,194,5.8,7.8,46,0.00,,---,0.00,VWS V13.01,2013-11-25 11:47:00,
2013-11-25 06:52:00,21.9,3.8,30.26,SSW,204,4.9,11.2,45,0.00,,---,0.00,VWS V13.01,2013-11-25 11:52:00,
2013-11-25 06:57:00,22.1,4.0,30.26,South,186,7.4,13.9,45,0.00,,---,0.00,VWS V13.01,2013-11-25 11:57:00,
2013-11-25 07:02:00,22.1,4.5,30.26,South,169,6.3,9.6,46,0.00,,---,0.00,VWS V13.01,2013-11-25 12:02:00,
2013-11-25 07:07:00,21.9,4.3,30.26,SSE,168,6.7,10.5,46,0.00,,---,0.00,VWS V13.01,2013-11-25 12:07:00,
2013-11-25 07:12:00,21.9,4.3,30.26,South,176,8.7,10.5,46,0.00,,---,0.00,VWS V13.01,2013-11-25 12:12:00,
2013-11-25 07:17:00,22.1,4.5,30.26,SSE,159,9.6,9.6,46,0.00,,---,0.00,VWS V13.01,2013-11-25 12:17:00,
2013-11-25 07:22:00,22.1,5.0,30.26,SE,146,9.2,12.1,47,0.00,,---,0.00,VWS V13.01,2013-11-25 12:22:00,
2013-11-25 07:27:00,22.3,5.1,30.26,ESE,122,5.4,8.7,47,0.00,,---,0.00,VWS V13.01,2013-11-25 12:27:00,
2013-11-25 07:32:00,22.3,5.1,30.26,SSE,163,6.3,11.0,47,0.00,,---,0.00,VWS V13.01,2013-11-25 12:32:00,
2013-11-25 07:37:00,22.5,5.3,30.26,South,189,9.6,11.2,47,0.00,,---,0.00,VWS V13.01,2013-11-25 12:37:00,
2013-11-25 07:42:00,22.5,5.8,30.26,SSW,198,8.3,11.0,48,0.00,,---,0.00,VWS V13.01,2013-11-25 12:42:00,
2013-11-25 07:47:00,22.5,5.8,30.26,WSW,238,6.9,10.5,48,0.00,,---,0.00,VWS V13.01,2013-11-25 12:47:00,
2013-11-25 07:52:00,22.6,5.9,30.23,SSW,205,6.9,12.5,48,0.00,,---,0.00,VWS V13.01,2013-11-25 12:52:00,
2013-11-25 07:58:00,23.0,6.2,30.23,South,184,12.1,12.1,48,0.00,,---,0.00,VWS V13.01,2013-11-25 12:58:00,
2013-11-25 08:03:00,23.2,6.4,30.23,SSE,159,10.1,11.0,48,0.00,,---,0.00,VWS V13.01,2013-11-25 13:03:00,
2013-11-25 08:08:00,23.2,6.4,30.23,South,185,7.8,10.5,48,0.00,,---,0.00,VWS V13.01,2013-11-25 13:08:00,
2013-11-25 08:13:00,23.4,6.6,30.23,SE,142,6.3,11.0,48,0.00,,---,0.00,VWS V13.01,2013-11-25 13:13:00,
2013-11-25 08:18:00,23.5,6.3,30.23,South,176,11.2,13.4,47,0.00,,---,0.00,VWS V13.01,2013-11-25 13:18:00,
2013-11-25 08:23:00,23.7,6.4,30.23,South,173,6.9,13.0,47,0.00,,---,0.00,VWS V13.01,2013-11-25 13:23:00,
2013-11-25 08:28:00,23.9,7.1,30.23,South,178,10.1,12.1,48,0.00,,---,0.00,VWS V13.01,2013-11-25 13:28:00,
2013-11-25 08:33:00,23.9,6.6,30.23,SSW,196,7.8,12.1,47,0.00,,---,0.00,VWS V13.01,2013-11-25 13:33:00,
2013-11-25 08:38:00,24.1,6.8,30.23,SSW,204,10.1,13.0,47,0.00,,---,0.00,VWS V13.01,2013-11-25 13:38:00,
2013-11-25 08:43:00,24.3,6.5,30.23,South,183,11.2,11.6,46,0.00,,---,0.00,VWS V13.01,2013-11-25 13:43:00,
2013-11-25 08:48:00,24.3,6.9,30.23,South,181,7.4,9.6,47,0.00,,---,0.00,VWS V13.01,2013-11-25 13:48:00,
2013-11-25 08:53:00,24.6,7.3,30.23,SSW,193,9.6,11.2,47,0.00,,---,0.00,VWS V13.01,2013-11-25 13:53:00,
2013-11-25 08:58:00,24.6,7.3,30.23,SSW,196,9.6,15.4,47,0.00,,---,0.00,VWS V13.01,2013-11-25 13:58:00,
2013-11-25 09:03:00,24.8,7.0,30.23,SSW,213,9.6,10.5,46,0.00,,---,0.00,VWS V13.01,2013-11-25 14:03:00,
2013-11-25 09:08:00,25.2,7.3,30.23,SSW,202,10.1,13.9,46,0.00,,---,0.00,VWS V13.01,2013-11-25 14:08:00,
2013-11-25 09:13:00,25.3,7.5,30.23,SSW,207,11.0,12.1,46,0.00,,---,0.00,VWS V13.01,2013-11-25 14:13:00,
2013-11-25 09:18:00,25.5,8.1,30.23,SSW,205,7.4,11.2,47,0.00,,---,0.00,VWS V13.01,2013-11-25 14:18:00,
2013-11-25 09:23:00,25.7,7.8,30.23,South,178,11.2,13.0,46,0.00,,---,0.00,VWS V13.01,2013-11-25 14:23:00,
2013-11-25 09:28:00,25.9,7.5,30.23,South,190,8.3,12.5,45,0.00,,---,0.00,VWS V13.01,2013-11-25 14:28:00,
2013-11-25 09:33:00,26.1,7.6,30.23,SSW,193,12.5,14.3,45,0.00,,---,0.00,VWS V13.01,2013-11-25 14:33:00,
2013-11-25 09:38:00,26.2,7.8,30.23,SSW,208,9.6,13.0,45,0.00,,---,0.00,VWS V13.01,2013-11-25 14:38:00,
2013-11-25 09:43:00,26.2,7.8,30.23,SSW,199,14.3,16.8,45,0.00,,---,0.00,VWS V13.01,2013-11-25 14:43:00,
2013-11-25 09:48:00,26.4,8.0,30.23,South,170,11.0,12.5,45,0.00,,---,0.00,VWS V13.01,2013-11-25 14:48:00,
2013-11-25 09:53:00,26.4,8.0,30.23,South,183,7.4,13.9,45,0.00,,---,0.00,VWS V13.01,2013-11-25 14:53:00,
2013-11-25 09:58:00,26.6,8.1,30.23,SE,141,11.0,14.8,45,0.00,,---,0.00,VWS V13.01,2013-11-25 14:58:00,
2013-11-25 10:03:00,26.8,7.8,30.23,South,187,7.8,17.7,44,0.00,,---,0.00,VWS V13.01,2013-11-25 15:03:00,
2013-11-25 10:08:00,27.0,8.0,30.20,SSW,202,7.8,15.2,44,0.00,,---,0.00,VWS V13.01,2013-11-25 15:08:00,
2013-11-25 10:13:00,27.1,8.1,30.20,South,180,13.0,15.2,44,0.00,,---,0.00,VWS V13.01,2013-11-25 15:13:00,
2013-11-25 10:18:00,27.1,8.1,30.20,SSE,162,11.0,15.4,44,0.00,,---,0.00,VWS V13.01,2013-11-25 15:18:00,
2013-11-25 10:24:00,27.0,8.5,30.20,South,173,12.1,12.5,45,0.00,,---,0.00,VWS V13.01,2013-11-25 15:24:00,
2013-11-25 10:29:00,27.1,8.1,30.20,South,180,15.4,16.3,44,0.00,,---,0.00,VWS V13.01,2013-11-25 15:29:00,
2013-11-25 10:34:00,27.1,8.6,30.20,SSW,192,6.9,11.2,45,0.00,,---,0.00,VWS V13.01,2013-11-25 15:34:00,
2013-11-25 10:39:00,27.3,8.3,30.20,SSE,152,11.0,13.9,44,0.00,,---,0.00,VWS V13.01,2013-11-25 15:39:00,
2013-11-25 10:44:00,27.3,8.3,30.20,South,189,13.4,15.2,44,0.00,,---,0.00,VWS V13.01,2013-11-25 15:44:00,
2013-11-25 10:49:00,27.3,8.3,30.20,South,171,14.8,16.3,44,0.00,,---,0.00,VWS V13.01,2013-11-25 15:49:00,
2013-11-25 10:54:00,27.3,8.3,30.20,SSW,195,16.3,16.3,44,0.00,,---,0.00,VWS V13.01,2013-11-25 15:54:00,
2013-11-25 10:59:00,27.5,8.5,30.20,SE,130,9.6,13.4,44,0.00,,---,0.00,VWS V13.01,2013-11-25 15:59:00,
2013-11-25 11:05:00,27.7,8.6,30.20,South,180,8.3,13.4,44,0.00,,---,0.00,VWS V13.01,2013-11-25 16:05:00,
2013-11-25 11:10:00,27.9,8.3,30.20,SSW,195,8.7,13.0,43,0.00,,---,0.00,VWS V13.01,2013-11-25 16:10:00,
2013-11-25 11:16:00,27.9,8.3,30.20,NE,37,7.4,12.1,43,0.00,,---,0.00,VWS V13.01,2013-11-25 16:16:00,
2013-11-25 11:21:00,28.0,8.4,30.20,SSW,194,13.0,13.9,43,0.00,,---,0.00,VWS V13.01,2013-11-25 16:21:00,
2013-11-25 11:26:00,27.9,8.3,30.20,SSE,151,9.6,13.0,43,0.00,,---,0.00,VWS V13.01,2013-11-25 16:26:00,
2013-11-25 11:31:00,28.0,8.9,30.20,SW,231,8.3,10.1,44,0.00,,---,0.00,VWS V13.01,2013-11-25 16:31:00,
2013-11-25 11:36:00,28.2,8.6,30.17,SSE,167,11.0,14.3,43,0.00,,---,0.00,VWS V13.01,2013-11-25 16:36:00,
2013-11-25 11:41:00,28.2,8.6,30.17,SSW,197,5.4,11.0,43,0.00,,---,0.00,VWS V13.01,2013-11-25 16:41:00,
2013-11-25 11:46:00,28.6,8.9,30.17,SE,135,15.2,15.2,43,0.00,,---,0.00,VWS V13.01,2013-11-25 16:46:00,
2013-11-25 11:52:00,28.8,9.1,30.17,SSW,202,10.5,13.0,43,0.00,,---,0.00,VWS V13.01,2013-11-25 16:52:00,
2013-11-25 11:57:00,28.8,9.1,30.17,SSE,161,8.7,15.9,43,0.00,,---,0.00,VWS V13.01,2013-11-25 16:57:00,
2013-11-25 12:02:00,28.8,9.1,30.17,South,171,14.8,15.9,43,0.00,,---,0.00,VWS V13.01,2013-11-25 17:02:00,
2013-11-25 12:07:00,28.8,9.1,30.17,SSW,192,11.0,11.6,43,0.00,,---,0.00,VWS V13.01,2013-11-25 17:07:00,
2013-11-25 12:12:00,28.9,8.7,30.17,SSE,151,10.5,14.8,42,0.00,,---,0.00,VWS V13.01,2013-11-25 17:12:00,
2013-11-25 12:17:00,29.1,9.4,30.17,South,182,5.8,11.0,43,0.00,,---,0.00,VWS V13.01,2013-11-25 17:17:00,
2013-11-25 12:22:00,29.3,9.1,30.17,South,187,11.6,13.0,42,0.00,,---,0.00,VWS V13.01,2013-11-25 17:22:00,
2013-11-25 12:28:00,29.7,9.4,30.17,South,189,11.0,13.0,42,0.00,,---,0.00,VWS V13.01,2013-11-25 17:28:00,
2013-11-25 12:33:00,29.8,9.6,30.17,South,187,8.7,17.2,42,0.00,,---,0.00,VWS V13.01,2013-11-25 17:33:00,
2013-11-25 12:39:00,30.0,9.7,30.14,SSE,163,8.7,13.4,42,0.00,,---,0.00,VWS V13.01,2013-11-25 17:39:00,
2013-11-25 12:44:00,30.0,9.7,30.14,ESE,106,11.2,11.2,42,0.00,,---,0.00,VWS V13.01,2013-11-25 17:44:00,
2013-11-25 12:49:00,30.4,10.1,30.14,SE,130,9.2,12.1,42,0.00,,---,0.00,VWS V13.01,2013-11-25 17:49:00,
2013-11-25 12:54:00,30.9,10.5,30.14,SSE,157,11.0,15.9,42,0.00,,---,0.00,VWS V13.01,2013-11-25 17:54:00,
2013-11-25 12:59:00,31.1,10.2,30.14,South,188,12.5,14.8,41,0.00,,---,0.00,VWS V13.01,2013-11-25 17:59:00,
2013-11-25 13:04:00,30.9,10.0,30.14,South,180,12.5,16.8,41,0.00,,---,0.00,VWS V13.01,2013-11-25 18:04:00,
2013-11-25 13:09:00,30.9,10.0,30.14,NNE,24,6.7,12.5,41,0.00,,---,0.00,VWS V13.01,2013-11-25 18:09:00,
2013-11-25 13:14:00,31.1,10.2,30.14,South,188,15.2,15.2,41,0.00,,---,0.00,VWS V13.01,2013-11-25 18:14:00,
2013-11-25 13:19:00,31.1,10.2,30.14,SSW,204,8.3,13.0,41,0.00,,---,0.00,VWS V13.01,2013-11-25 18:19:00,
2013-11-25 13:24:00,31.1,10.7,30.14,South,180,18.1,18.1,42,0.00,,---,0.00,VWS V13.01,2013-11-25 18:24:00,
2013-11-25 13:29:00,30.7,9.8,30.14,SE,140,10.5,16.8,41,0.00,,---,0.00,VWS V13.01,2013-11-25 18:29:00,
2013-11-25 13:34:00,30.7,9.8,30.11,SSE,149,7.4,15.2,41,0.00,,---,0.00,VWS V13.01,2013-11-25 18:34:00,
2013-11-25 13:39:00,30.4,9.5,30.11,SSW,197,9.6,15.2,41,0.00,,---,0.00,VWS V13.01,2013-11-25 18:39:00,
2013-11-25 13:44:00,30.7,10.4,30.11,SSE,165,12.1,13.0,42,0.00,,---,0.00,VWS V13.01,2013-11-25 18:44:00,
2013-11-25 13:49:00,30.6,9.7,30.11,SE,137,10.1,15.4,41,0.00,,---,0.00,VWS V13.01,2013-11-25 18:49:00,
2013-11-25 13:54:00,30.4,9.5,30.11,South,189,10.5,17.7,41,0.00,,---,0.00,VWS V13.01,2013-11-25 18:54:00,
2013-11-25 13:59:00,30.6,9.7,30.11,SSW,192,7.8,15.4,41,0.00,,---,0.00,VWS V13.01,2013-11-25 18:59:00,
2013-11-25 14:04:00,30.4,9.5,30.11,South,181,8.7,13.0,41,0.00,,---,0.00,VWS V13.01,2013-11-25 19:04:00,
2013-11-25 14:09:00,30.4,10.1,30.11,SSW,192,6.9,10.5,42,0.00,,---,0.00,VWS V13.01,2013-11-25 19:09:00,
2013-11-25 14:14:00,30.4,10.1,30.11,SE,139,7.4,13.0,42,0.00,,---,0.00,VWS V13.01,2013-11-25 19:14:00,
2013-11-25 14:19:00,30.2,9.4,30.11,SE,138,13.4,15.2,41,0.00,,---,0.00,VWS V13.01,2013-11-25 19:19:00,
2013-11-25 14:24:00,30.2,9.9,30.11,South,171,7.8,15.2,42,0.00,,---,0.00,VWS V13.01,2013-11-25 19:24:00,
2013-11-25 14:29:00,30.4,10.1,30.11,South,185,8.7,15.2,42,0.00,,---,0.00,VWS V13.01,2013-11-25 19:29:00,
2013-11-25 14:34:00,30.4,9.5,30.11,SSW,211,11.0,20.1,41,0.00,,---,0.00,VWS V13.01,2013-11-25 19:34:00,
2013-11-25 14:39:00,30.4,10.1,30.11,South,186,6.7,9.6,42,0.00,,---,0.00,VWS V13.01,2013-11-25 19:39:00,
2013-11-25 14:44:00,30.4,10.1,30.11,SSW,194,11.2,13.4,42,0.00,,---,0.00,VWS V13.01,2013-11-25 19:44:00,
2013-11-25 14:49:00,30.4,10.1,30.11,SSW,195,12.5,18.1,42,0.00,,---,0.00,VWS V13.01,2013-11-25 19:49:00,
2013-11-25 14:54:00,30.4,10.1,30.11,ESE,123,11.6,11.6,42,0.00,,---,0.00,VWS V13.01,2013-11-25 19:54:00,
2013-11-25 14:59:00,30.4,10.1,30.11,South,174,11.0,16.8,42,0.00,,---,0.00,VWS V13.01,2013-11-25 19:59:00,
2013-11-25 15:05:00,30.4,10.1,30.11,South,179,13.0,14.8,42,0.00,,---,0.00,VWS V13.01,2013-11-25 20:05:00,
2013-11-25 15:11:00,30.4,10.1,30.11,SSW,211,7.8,14.3,42,0.00,,---,0.00,VWS V13.01,2013-11-25 20:11:00,
2013-11-25 15:16:00,30.2,10.4,30.11,South,170,17.7,17.7,43,0.00,,---,0.00,VWS V13.01,2013-11-25 20:16:00,
2013-11-25 15:21:00,30.2,10.4,30.08,South,174,10.1,13.9,43,0.00,,---,0.00,VWS V13.01,2013-11-25 20:21:00,
2013-11-25 15:26:00,30.0,10.2,30.08,South,179,15.2,17.7,43,0.00,,---,0.00,VWS V13.01,2013-11-25 20:26:00,
2013-11-25 15:31:00,29.8,10.6,30.08,SW,218,12.5,19.5,44,0.00,,---,0.00,VWS V13.01,2013-11-25 20:31:00,
2013-11-25 15:36:00,29.7,10.9,30.08,SW,233,11.2,13.4,45,0.00,,---,0.00,VWS V13.01,2013-11-25 20:36:00,
2013-11-25 15:41:00,29.7,11.4,30.08,SSW,198,9.6,11.6,46,0.00,,---,0.00,VWS V13.01,2013-11-25 20:41:00,
2013-11-25 15:47:00,29.7,11.4,30.08,SSE,149,10.5,14.3,46,0.00,,---,0.00,VWS V13.01,2013-11-25 20:47:00,
2013-11-25 15:53:00,29.7,11.9,30.11,SSW,210,11.2,13.0,47,0.00,,---,0.00,VWS V13.01,2013-11-25 20:53:00,
2013-11-25 15:58:00,29.7,11.9,30.11,South,179,8.3,17.2,47,0.00,,---,0.00,VWS V13.01,2013-11-25 20:58:00,
2013-11-25 16:03:00,29.7,11.9,30.11,SSW,193,10.5,14.3,47,0.00,,---,0.00,VWS V13.01,2013-11-25 21:03:00,
2013-11-25 16:08:00,29.7,12.4,30.11,SSW,199,14.3,16.8,48,0.00,,---,0.00,VWS V13.01,2013-11-25 21:08:00,
2013-11-25 16:13:00,29.7,12.9,30.11,SSE,167,9.6,15.4,49,0.00,,---,0.00,VWS V13.01,2013-11-25 21:13:00,
2013-11-25 16:18:00,29.7,13.3,30.11,SSE,164,8.7,14.3,50,0.00,,---,0.00,VWS V13.01,2013-11-25 21:18:00,
2013-11-25 16:23:00,29.8,14.4,30.08,South,181,12.1,12.5,52,0.00,,---,0.00,VWS V13.01,2013-11-25 21:23:00,
2013-11-25 16:28:00,29.7,15.1,30.08,SSE,160,11.2,19.0,54,0.00,,---,0.00,VWS V13.01,2013-11-25 21:28:00,
2013-11-25 16:34:00,29.5,15.7,30.08,SW,220,11.6,16.8,56,0.00,,---,0.00,VWS V13.01,2013-11-25 21:34:00,
2013-11-25 16:39:00,29.7,16.3,30.08,South,181,8.7,15.2,57,0.00,,---,0.00,VWS V13.01,2013-11-25 21:39:00,
2013-11-25 16:44:00,29.5,16.5,30.08,South,178,11.6,19.5,58,0.00,,---,0.00,VWS V13.01,2013-11-25 21:44:00,
2013-11-25 16:49:00,29.5,16.9,30.08,SSE,150,8.3,15.4,59,0.00,,---,0.00,VWS V13.01,2013-11-25 21:49:00,
2013-11-25 16:54:00,29.3,16.8,30.08,SSW,209,11.0,12.1,59,0.00,,---,0.00,VWS V13.01,2013-11-25 21:54:00,
2013-11-25 16:59:00,29.3,16.8,30.08,SSW,192,13.4,14.3,59,0.00,,---,0.00,VWS V13.01,2013-11-25 21:59:00,
2013-11-25 17:04:00,29.3,16.4,30.08,South,171,7.4,11.0,58,0.00,,---,0.00,VWS V13.01,2013-11-25 22:04:00,
2013-11-25 17:09:00,29.5,16.5,30.08,SSE,150,9.6,12.1,58,0.00,,---,0.00,VWS V13.01,2013-11-25 22:09:00,
2013-11-25 17:14:00,29.5,16.1,30.08,South,187,7.8,13.4,57,0.00,,---,0.00,VWS V13.01,2013-11-25 22:14:00,
2013-11-25 17:19:00,29.5,15.7,30.08,SSE,167,8.3,11.0,56,0.00,,---,0.00,VWS V13.01,2013-11-25 22:19:00,
2013-11-25 17:24:00,29.5,15.7,30.08,South,173,9.6,9.6,56,0.00,,---,0.00,VWS V13.01,2013-11-25 22:24:00,
2013-11-25 17:29:00,29.5,15.3,30.08,SW,229,10.5,11.2,55,0.00,,---,0.00,VWS V13.01,2013-11-25 22:29:00,
2013-11-25 17:34:00,29.5,15.3,30.08,SSW,193,7.4,11.2,55,0.00,,---,0.00,VWS V13.01,2013-11-25 22:34:00,
2013-11-25 17:39:00,29.5,15.7,30.08,SSW,193,15.2,15.2,56,0.00,,---,0.00,VWS V13.01,2013-11-25 22:39:00,
2013-11-25 17:44:00,29.5,15.7,30.08,SW,221,10.5,13.0,56,0.00,,---,0.00,VWS V13.01,2013-11-25 22:44:00,
2013-11-25 17:49:00,29.5,16.1,30.08,South,172,8.7,8.7,57,0.00,,---,0.00,VWS V13.01,2013-11-25 22:49:00,
2013-11-25 17:54:00,29.5,16.1,30.08,SSE,147,8.7,11.6,57,0.00,,---,0.00,VWS V13.01,2013-11-25 22:54:00,
2013-11-25 17:59:00,29.5,16.9,30.08,South,182,6.9,11.2,59,0.00,,---,0.00,VWS V13.01,2013-11-25 22:59:00,
2013-11-25 18:04:00,29.3,17.1,30.08,South,184,11.0,14.8,60,0.00,,---,0.00,VWS V13.01,2013-11-25 23:04:00,
2013-11-25 18:09:00,29.3,17.9,30.08,SSE,165,9.6,12.1,62,0.00,,---,0.00,VWS V13.01,2013-11-25 23:09:00,
2013-11-25 18:14:00,29.1,18.8,30.08,SSW,196,6.9,14.3,65,0.00,,---,0.00,VWS V13.01,2013-11-25 23:14:00,
2013-11-25 18:19:00,28.9,19.4,30.11,SSW,192,10.5,15.2,67,0.00,,---,0.00,VWS V13.01,2013-11-25 23:19:00,
2013-11-25 18:24:00,28.9,20.1,30.11,SSW,192,9.6,14.3,69,0.00,,---,0.00,VWS V13.01,2013-11-25 23:24:00,
2013-11-25 18:29:00,28.9,20.7,30.11,South,185,6.7,11.6,71,0.00,,---,0.00,VWS V13.01,2013-11-25 23:29:00,
2013-11-25 18:34:00,28.9,21.4,30.11,South,188,6.9,12.1,73,0.00,,---,0.00,VWS V13.01,2013-11-25 23:34:00,
2013-11-25 18:39:00,28.9,21.7,30.11,South,188,9.6,10.5,74,0.00,,---,0.00,VWS V13.01,2013-11-25 23:39:00,
2013-11-25 18:45:00,28.9,22.0,30.11,South,174,9.2,11.6,75,0.00,,---,0.00,VWS V13.01,2013-11-25 23:45:00,
2013-11-25 18:50:00,29.1,22.5,30.11,SSE,157,4.5,11.2,76,0.00,,---,0.00,VWS V13.01,2013-11-25 23:50:00,
2013-11-25 18:55:00,29.1,22.8,30.11,SSW,197,6.9,9.6,77,0.00,,---,0.00,VWS V13.01,2013-11-25 23:55:00,
2013-11-25 19:00:00,29.3,23.3,30.11,South,180,9.2,9.2,78,0.00,,---,0.00,VWS V13.01,2013-11-26 00:00:00,
2013-11-25 19:05:00,29.3,23.3,30.11,South,185,7.8,9.6,78,0.00,,---,0.00,VWS V13.01,2013-11-26 00:05:00,
2013-11-25 19:10:00,29.3,23.3,30.11,South,188,6.3,10.1,78,0.00,,---,0.00,VWS V13.01,2013-11-26 00:10:00,
2013-11-25 19:15:00,29.5,23.8,30.11,South,181,7.8,11.0,79,0.00,,---,0.00,VWS V13.01,2013-11-26 00:15:00,
2013-11-25 19:21:00,29.5,23.8,30.11,SW,215,9.2,11.6,79,0.00,,---,0.00,VWS V13.01,2013-11-26 00:21:00,
2013-11-25 19:26:00,29.7,24.0,30.11,South,175,5.8,9.6,79,0.00,,---,0.00,VWS V13.01,2013-11-26 00:26:00,
2013-11-25 19:31:00,29.7,24.3,30.11,NW,305,7.8,11.2,80,0.00,,---,0.00,VWS V13.01,2013-11-26 00:31:00,
2013-11-25 19:36:00,29.7,24.3,30.11,SSE,168,9.2,14.8,80,0.00,,---,0.00,VWS V13.01,2013-11-26 00:36:00,
2013-11-25 19:41:00,29.7,24.3,30.11,SW,228,8.3,9.6,80,0.00,,---,0.00,VWS V13.01,2013-11-26 00:41:00,
2013-11-25 19:46:00,29.7,24.3,30.11,SSE,163,8.7,11.6,80,0.00,,---,0.00,VWS V13.01,2013-11-26 00:46:00,
2013-11-25 19:52:00,29.7,24.3,30.11,South,173,9.2,11.2,80,0.00,,---,0.00,VWS V13.01,2013-11-26 00:52:00,
2013-11-25 19:57:00,29.7,24.3,30.11,SSW,203,7.4,15.2,80,0.00,,---,0.00,VWS V13.01,2013-11-26 00:57:00,
2013-11-25 20:02:00,29.7,24.3,30.11,SSW,198,9.6,10.1,80,0.00,,---,0.00,VWS V13.01,2013-11-26 01:02:00,
2013-11-25 20:07:00,29.7,24.3,30.11,South,189,8.7,11.2,80,0.00,,---,0.00,VWS V13.01,2013-11-26 01:07:00,
2013-11-25 20:12:00,29.7,24.3,30.11,South,181,11.6,11.6,80,0.00,,---,0.00,VWS V13.01,2013-11-26 01:12:00,
2013-11-25 20:17:00,29.7,24.3,30.11,SSW,201,10.1,10.5,80,0.00,,---,0.00,VWS V13.01,2013-11-26 01:17:00,
2013-11-25 20:23:00,29.7,24.0,30.11,SSW,196,9.2,11.2,79,0.00,,---,0.00,VWS V13.01,2013-11-26 01:23:00,
2013-11-25 20:28:00,29.7,24.0,30.11,South,182,5.8,12.5,79,0.00,,---,0.00,VWS V13.01,2013-11-26 01:28:00,
2013-11-25 20:33:00,29.5,23.8,30.11,SSE,160,8.3,11.0,79,0.00,,---,0.00,VWS V13.01,2013-11-26 01:33:00,
2013-11-25 20:38:00,29.5,23.8,30.11,SSW,192,11.0,11.6,79,0.00,,---,0.00,VWS V13.01,2013-11-26 01:38:00,
2013-11-25 20:43:00,29.5,23.5,30.11,SSE,167,11.0,14.3,78,0.00,,---,0.00,VWS V13.01,2013-11-26 01:43:00,
2013-11-25 20:48:00,29.5,23.5,30.11,South,171,14.3,14.3,78,0.00,,---,0.00,VWS V13.01,2013-11-26 01:48:00,
2013-11-25 20:53:00,29.3,23.3,30.11,SSE,160,7.8,11.6,78,0.00,,---,0.00,VWS V13.01,2013-11-26 01:53:00,
2013-11-25 20:58:00,29.3,23.3,30.11,SSW,192,12.1,13.4,78,0.00,,---,0.00,VWS V13.01,2013-11-26 01:58:00,
2013-11-25 21:03:00,29.3,23.3,30.11,South,189,6.7,9.2,78,0.00,,---,0.00,VWS V13.01,2013-11-26 02:03:00,
2013-11-25 21:09:00,29.3,23.3,30.11,SSW,192,12.1,12.1,78,0.00,,---,0.00,VWS V13.01,2013-11-26 02:09:00,
2013-11-25 21:14:00,29.3,23.0,30.11,South,186,10.5,14.8,77,0.00,,---,0.00,VWS V13.01,2013-11-26 02:14:00,
2013-11-25 21:19:00,29.3,23.0,30.11,South,187,9.2,13.4,77,0.00,,---,0.00,VWS V13.01,2013-11-26 02:19:00,
2013-11-25 21:24:00,29.3,23.0,30.11,WSW,238,6.9,13.9,77,0.00,,---,0.00,VWS V13.01,2013-11-26 02:24:00,
2013-11-25 21:29:00,29.3,23.0,30.11,WSW,239,11.0,11.0,77,0.00,,---,0.00,VWS V13.01,2013-11-26 02:29:00,
2013-11-25 21:34:00,29.3,23.0,30.11,SSW,192,14.3,14.8,77,0.00,,---,0.00,VWS V13.01,2013-11-26 02:34:00,
2013-11-25 21:39:00,29.3,23.0,30.11,SSW,205,8.3,13.9,77,0.00,,---,0.00,VWS V13.01,2013-11-26 02:39:00,
2013-11-25 21:44:00,29.5,23.2,30.11,South,175,9.2,10.5,77,0.00,,---,0.00,VWS V13.01,2013-11-26 02:44:00,
2013-11-25 21:49:00,29.5,22.9,30.11,SE,141,7.8,12.1,76,0.00,,---,0.00,VWS V13.01,2013-11-26 02:49:00,
2013-11-25 21:54:00,29.5,22.9,30.11,SE,141,10.1,13.4,76,0.00,,---,0.00,VWS V13.01,2013-11-26 02:54:00,
2013-11-25 21:59:00,29.7,23.0,30.11,SW,224,10.5,10.5,76,0.00,,---,0.00,VWS V13.01,2013-11-26 02:59:00,
2013-11-25 22:04:00,29.7,23.0,30.11,SW,218,5.8,9.6,76,0.00,,---,0.00,VWS V13.01,2013-11-26 03:04:00,
2013-11-25 22:09:00,29.7,23.0,30.11,SW,226,13.0,13.9,76,0.00,,---,0.00,VWS V13.01,2013-11-26 03:09:00,
2013-11-25 22:14:00,29.7,23.0,30.11,South,177,9.2,11.0,76,0.00,,---,0.00,VWS V13.01,2013-11-26 03:14:00,
2013-11-25 22:19:00,29.7,23.0,30.11,SW,214,7.4,13.0,76,0.00,,---,0.00,VWS V13.01,2013-11-26 03:19:00,
2013-11-25 22:24:00,29.8,23.2,30.11,South,184,10.1,11.2,76,0.00,,---,0.00,VWS V13.01,2013-11-26 03:24:00,
2013-11-25 22:29:00,29.8,23.2,30.11,South,189,6.9,11.6,76,0.00,,---,0.00,VWS V13.01,2013-11-26 03:29:00,
2013-11-25 22:35:00,29.8,23.2,30.11,South,191,9.2,10.5,76,0.00,,---,0.00,VWS V13.01,2013-11-26 03:35:00,
2013-11-25 22:40:00,29.8,23.2,30.11,South,186,7.8,9.6,76,0.00,,---,0.00,VWS V13.01,2013-11-26 03:40:00,
2013-11-25 22:45:00,29.8,23.2,30.11,SSW,199,9.2,12.5,76,0.00,,---,0.00,VWS V13.01,2013-11-26 03:45:00,
2013-11-25 22:50:00,30.0,23.4,30.11,SW,214,11.6,13.0,76,0.00,,---,0.00,VWS V13.01,2013-11-26 03:50:00,
2013-11-25 22:55:00,30.0,23.4,30.11,SW,225,10.1,10.1,76,0.00,,---,0.00,VWS V13.01,2013-11-26 03:55:00,
2013-11-25 23:00:00,30.0,23.4,30.11,South,188,7.4,9.2,76,0.00,,---,0.00,VWS V13.01,2013-11-26 04:00:00,
2013-11-25 23:05:00,30.2,23.6,30.08,SSE,151,12.1,12.1,76,0.00,,---,0.00,VWS V13.01,2013-11-26 04:05:00,
2013-11-25 23:10:00,30.2,23.6,30.08,South,172,5.4,10.1,76,0.00,,---,0.00,VWS V13.01,2013-11-26 04:10:00,
2013-11-25 23:15:00,30.0,23.4,30.08,South,189,6.9,9.6,76,0.00,,---,0.00,VWS V13.01,2013-11-26 04:15:00,
2013-11-25 23:20:00,30.2,23.6,30.11,SW,221,9.2,10.5,76,0.00,,---,0.00,VWS V13.01,2013-11-26 04:20:00,
2013-11-25 23:26:00,30.2,23.6,30.11,SW,217,9.2,10.5,76,0.00,,---,0.00,VWS V13.01,2013-11-26 04:26:00,
2013-11-25 23:31:00,30.0,23.4,30.11,SW,217,13.4,13.4,76,0.00,,---,0.00,VWS V13.01,2013-11-26 04:31:00,
2013-11-25 23:36:00,30.2,23.6,30.08,SSW,196,4.9,7.4,76,0.00,,---,0.00,VWS V13.01,2013-11-26 04:36:00,
2013-11-25 23:41:00,30.0,23.1,30.08,ESE,119,6.9,8.7,75,0.00,,---,0.00,VWS V13.01,2013-11-26 04:41:00,
2013-11-25 23:46:00,30.0,23.1,30.08,SSW,195,4.5,9.2,75,0.00,,---,0.00,VWS V13.01,2013-11-26 04:46:00,
2013-11-25 23:51:00,30.0,22.8,30.08,SSW,197,9.2,10.1,74,0.00,,---,0.00,VWS V13.01,2013-11-26 04:51:00,
2013-11-25 23:56:00,30.0,22.8,30.08,SSW,199,8.3,12.5,74,0.00,,---,0.00,VWS V13.01,2013-11-26 04:56:00,